PPNOB SDCO-SBBR

Flight info

Callsign PPNOB
Flight time 1h 1m
Altitude 330
Route UBUME UL304 GERTU UZ25 PABIN
Aircraft B737/M-SGWR/S

Departure

Time 2026-05-05 23:23
Airport Sorocaba Airport (SDCO)

Arrival

Time 2026-05-06 00:24
Airport Presidente Juscelino Kubitschek International Airport (SBBR)
Time Latitude Longitude Altitude Speed Heading
2026-05-05 23:19 -23.48327 -47.48807 2088 ft 0 kts 341°
2026-05-05 23:22 -23.48287 -47.48822 2087 ft 32 kts 341°
2026-05-05 23:22 -23.47807 -47.48998 2071 ft 112 kts 342°
2026-05-05 23:23 -23.46850 -47.49348 2074 ft 173 kts 342°
2026-05-05 23:23 -23.45633 -47.49778 2695 ft 187 kts 343°
2026-05-05 23:23 -23.44372 -47.50281 3487 ft 200 kts 342°
2026-05-05 23:23 -23.42974 -47.50571 4163 ft 210 kts 358°
2026-05-05 23:24 -23.41513 -47.50692 5034 ft 208 kts 357°
2026-05-05 23:24 -23.40047 -47.50728 5742 ft 216 kts
2026-05-05 23:24 -23.38504 -47.50679 6328 ft 227 kts
2026-05-05 23:24 -23.36882 -47.50753 6912 ft 239 kts 358°
2026-05-05 23:25 -23.35201 -47.50864 7615 ft 246 kts 357°
2026-05-05 23:25 -23.33446 -47.50982 8376 ft 258 kts 358°
2026-05-05 23:25 -23.31592 -47.51103 9170 ft 277 kts 358°
2026-05-05 23:25 -23.29600 -47.51229 9972 ft 296 kts 358°
2026-05-05 23:26 -23.27480 -47.51361 10705 ft 313 kts 358°
2026-05-05 23:26 -23.25247 -47.51497 11439 ft 330 kts 358°
2026-05-05 23:26 -23.22895 -47.51637 12185 ft 345 kts 357°
2026-05-05 23:26 -23.20450 -47.51782 12944 ft 358 kts 357°
2026-05-05 23:27 -23.17918 -47.51931 13707 ft 370 kts 357°
2026-05-05 23:27 -23.15310 -47.52083 14435 ft 381 kts 357°
2026-05-05 23:27 -23.12629 -47.52239 15132 ft 390 kts 357°
2026-05-05 23:27 -23.09938 -47.52396 15844 ft 398 kts 357°
2026-05-05 23:28 -23.07141 -47.52558 16624 ft 402 kts 356°
2026-05-05 23:28 -23.04342 -47.52720 17515 ft 404 kts 356°
2026-05-05 23:28 -23.01527 -47.52883 18422 ft 405 kts 356°
2026-05-05 23:28 -22.98708 -47.53063 19232 ft 405 kts 355°
2026-05-05 23:29 -22.95897 -47.53304 20057 ft 404 kts 354°
2026-05-05 23:29 -22.93092 -47.53574 20904 ft 403 kts 353°
2026-05-05 23:29 -22.90295 -47.53851 21641 ft 406 kts 353°
2026-05-05 23:29 -22.87441 -47.54132 22096 ft 416 kts 353°
2026-05-05 23:30 -22.84569 -47.54412 22582 ft 424 kts 353°
2026-05-05 23:30 -22.82566 -47.54604 22922 ft 429 kts 353°
2026-05-05 23:30 -22.78604 -47.54977 23829 ft 431 kts 353°
2026-05-05 23:30 -22.75612 -47.55256 24402 ft 433 kts 353°
2026-05-05 23:31 -22.72594 -47.55535 24883 ft 438 kts 353°
2026-05-05 23:31 -22.69540 -47.55818 25342 ft 442 kts 353°
2026-05-05 23:31 -22.66456 -47.56102 25811 ft 446 kts 353°
2026-05-05 23:31 -22.63344 -47.56390 26279 ft 450 kts 353°
2026-05-05 23:32 -22.60211 -47.56678 26794 ft 451 kts 353°
2026-05-05 23:32 -22.57090 -47.56965 27421 ft 450 kts 353°
2026-05-05 23:32 -22.54010 -47.57248 28037 ft 449 kts 352°
2026-05-05 23:32 -22.50891 -47.57535 28588 ft 449 kts 352°
2026-05-05 23:33 -22.47776 -47.57822 29132 ft 450 kts 352°
2026-05-05 23:33 -22.44652 -47.58109 29676 ft 450 kts 352°
2026-05-05 23:33 -22.41536 -47.58393 30237 ft 449 kts 352°
2026-05-05 23:33 -22.38422 -47.58679 30701 ft 449 kts 352°
2026-05-05 23:34 -22.35306 -47.58966 31143 ft 449 kts 351°
2026-05-05 23:34 -22.32172 -47.59255 31377 ft 455 kts 351°
2026-05-05 23:34 -22.29008 -47.59549 31623 ft 459 kts 351°
2026-05-05 23:34 -22.25809 -47.59844 31876 ft 463 kts 351°
2026-05-05 23:35 -22.22573 -47.60143 32134 ft 467 kts 351°
2026-05-05 23:35 -22.19322 -47.60441 32387 ft 471 kts 351°
2026-05-05 23:35 -22.16043 -47.60742 32652 ft 474 kts 351°
2026-05-05 23:35 -22.12742 -47.61045 32904 ft 477 kts 351°
2026-05-05 23:36 -22.09425 -47.61349 33164 ft 480 kts 351°
2026-05-05 23:36 -22.06128 -47.61651 33420 ft 482 kts 351°
2026-05-05 23:36 -22.02743 -47.61961 33760 ft 482 kts 351°
2026-05-05 23:36 -21.99397 -47.62267 34094 ft 482 kts 350°
2026-05-05 23:37 -21.96093 -47.62568 34393 ft 482 kts 350°
2026-05-05 23:37 -21.92760 -47.62872 34688 ft 482 kts 350°
2026-05-05 23:37 -21.89417 -47.63177 34968 ft 482 kts 350°
2026-05-05 23:37 -21.86080 -47.63482 35259 ft 481 kts 349°
2026-05-05 23:38 -21.82734 -47.63787 35486 ft 483 kts 349°
2026-05-05 23:38 -21.79385 -47.64094 35674 ft 485 kts 349°
2026-05-05 23:38 -21.73747 -47.64611 35873 ft 491 kts 349°
2026-05-05 23:39 -21.70289 -47.64928 36022 ft 495 kts 349°
2026-05-05 23:39 -21.66880 -47.65239 36129 ft 499 kts 349°
2026-05-05 23:39 -21.59883 -47.65878 36168 ft 509 kts 349°
2026-05-05 23:40 -21.52759 -47.66526 36170 ft 517 kts 349°
2026-05-05 23:40 -21.45574 -47.67174 36153 ft 516 kts 349°
2026-05-05 23:41 -21.38419 -47.67818 36155 ft 515 kts 349°
2026-05-05 23:41 -21.31346 -47.68458 36163 ft 513 kts 349°
2026-05-05 23:42 -21.24188 -47.69106 36173 ft 512 kts 349°
2026-05-05 23:42 -21.17120 -47.69746 36187 ft 512 kts 349°
2026-05-05 23:43 -21.10013 -47.70390 36185 ft 512 kts 349°
2026-05-05 23:43 -21.02895 -47.71033 36187 ft 513 kts 349°
2026-05-05 23:44 -20.95847 -47.71669 36175 ft 515 kts 349°
2026-05-05 23:44 -20.88669 -47.72316 36176 ft 515 kts 349°
2026-05-05 23:45 -20.81529 -47.72958 36170 ft 516 kts 349°
2026-05-05 23:45 -20.74367 -47.73602 36162 ft 516 kts 349°
2026-05-05 23:46 -20.67203 -47.74246 36178 ft 516 kts 349°
2026-05-05 23:46 -20.60039 -47.74889 36165 ft 516 kts 349°
2026-05-05 23:47 -20.52867 -47.75532 36172 ft 516 kts 349°
2026-05-05 23:47 -20.45702 -47.76174 36161 ft 516 kts 349°
2026-05-05 23:48 -20.38550 -47.76814 36161 ft 516 kts 349°
2026-05-05 23:48 -20.31430 -47.77451 36154 ft 515 kts 349°
2026-05-05 23:49 -20.24295 -47.78088 36152 ft 514 kts 350°
2026-05-05 23:49 -20.17161 -47.78727 36153 ft 514 kts 349°
2026-05-05 23:50 -20.10040 -47.79362 36152 ft 514 kts 349°
2026-05-05 23:50 -20.02915 -47.79996 36178 ft 513 kts 349°
2026-05-05 23:51 -19.95791 -47.80630 36193 ft 514 kts 349°
2026-05-05 23:51 -19.88665 -47.81263 36209 ft 514 kts 349°
2026-05-05 23:52 -19.81564 -47.81895 36223 ft 514 kts 350°
2026-05-05 23:52 -19.74425 -47.82529 36223 ft 514 kts 350°
2026-05-05 23:53 -19.67285 -47.83162 36222 ft 515 kts 350°
2026-05-05 23:53 -19.60131 -47.83797 36215 ft 515 kts 350°
2026-05-05 23:54 -19.52981 -47.84430 36197 ft 516 kts 350°
2026-05-05 23:54 -19.45851 -47.85060 36187 ft 517 kts 350°
2026-05-05 23:55 -19.38679 -47.85694 36183 ft 517 kts 350°
2026-05-05 23:55 -19.31506 -47.86327 36181 ft 518 kts 350°
2026-05-05 23:56 -19.24313 -47.86962 36179 ft 518 kts 350°
2026-05-05 23:56 -19.17126 -47.87595 36180 ft 518 kts 350°
2026-05-05 23:57 -19.09932 -47.88229 36177 ft 518 kts 350°
2026-05-05 23:57 -19.02740 -47.88862 36187 ft 519 kts 350°
2026-05-05 23:58 -18.95534 -47.89496 36188 ft 519 kts 350°
2026-05-05 23:58 -18.88387 -47.90124 36195 ft 519 kts 350°
2026-05-05 23:59 -18.81168 -47.90757 36188 ft 519 kts 350°
2026-05-05 23:59 -18.73978 -47.91388 36183 ft 519 kts 350°
2026-05-06 00:00 -18.66776 -47.92019 36167 ft 519 kts 350°
2026-05-06 00:00 -18.59575 -47.92650 36162 ft 518 kts 350°
2026-05-06 00:01 -18.52427 -47.93275 36156 ft 518 kts 350°
2026-05-06 00:01 -18.45230 -47.93904 36152 ft 518 kts 350°
2026-05-06 00:02 -18.38048 -47.94531 36156 ft 518 kts 350°
2026-05-06 00:02 -18.30853 -47.95159 36146 ft 518 kts 350°
2026-05-06 00:03 -18.23724 -47.95781 36156 ft 518 kts 350°
2026-05-06 00:03 -18.16471 -47.96413 36153 ft 518 kts 351°
2026-05-06 00:04 -18.09326 -47.97035 36155 ft 519 kts 351°
2026-05-06 00:04 -18.02127 -47.97661 36155 ft 519 kts 351°
2026-05-06 00:05 -17.91317 -47.98600 36109 ft 520 kts 351°
2026-05-06 00:05 -17.87726 -47.98912 35884 ft 521 kts 351°
2026-05-06 00:06 -17.84107 -47.99226 35653 ft 519 kts 351°
2026-05-06 00:06 -17.80506 -47.99538 35450 ft 519 kts 351°
2026-05-06 00:06 -17.76916 -47.99849 35245 ft 520 kts 351°
2026-05-06 00:06 -17.73295 -48.00164 35037 ft 521 kts 351°
2026-05-06 00:07 -17.69677 -48.00477 34839 ft 522 kts 351°
2026-05-06 00:07 -17.66056 -48.00791 34537 ft 525 kts 351°
2026-05-06 00:07 -17.62392 -48.01110 34055 ft 531 kts 352°
2026-05-06 00:07 -17.58756 -48.01425 33487 ft 527 kts 352°
2026-05-06 00:08 -17.55130 -48.01736 32852 ft 522 kts 352°
2026-05-06 00:08 -17.51520 -48.02045 32234 ft 515 kts 352°
2026-05-06 00:08 -17.47970 -48.02350 31640 ft 509 kts 352°
2026-05-06 00:08 -17.44459 -48.02652 31098 ft 503 kts 352°
2026-05-06 00:09 -17.40974 -48.02953 30597 ft 504 kts 352°
2026-05-06 00:09 -17.37464 -48.03259 30084 ft 505 kts 352°
2026-05-06 00:09 -17.33951 -48.03564 29496 ft 507 kts 352°
2026-05-06 00:09 -17.30481 -48.03865 28928 ft 507 kts 352°
2026-05-06 00:10 -17.26907 -48.04174 28351 ft 508 kts 352°
2026-05-06 00:10 -17.23421 -48.04475 27810 ft 512 kts 353°
2026-05-06 00:10 -17.19847 -48.04783 27267 ft 513 kts 353°
2026-05-06 00:10 -17.16294 -48.05089 26734 ft 513 kts 353°
2026-05-06 00:11 -17.12745 -48.05394 26207 ft 512 kts 353°
2026-05-06 00:11 -17.09200 -48.05698 25695 ft 511 kts 354°
2026-05-06 00:11 -17.05663 -48.06002 25189 ft 509 kts 354°
2026-05-06 00:11 -17.02131 -48.06306 24694 ft 506 kts 354°
2026-05-06 00:12 -16.98634 -48.06639 24241 ft 502 kts 353°
2026-05-06 00:12 -16.95190 -48.07024 23918 ft 495 kts 353°
2026-05-06 00:12 -16.91776 -48.07422 23558 ft 489 kts 353°
2026-05-06 00:12 -16.88406 -48.07821 23172 ft 485 kts 353°
2026-05-06 00:13 -16.85062 -48.08220 22784 ft 482 kts 353°
2026-05-06 00:13 -16.81733 -48.08614 22404 ft 480 kts 353°
2026-05-06 00:13 -16.78408 -48.08872 22036 ft 478 kts 357°
2026-05-06 00:13 -16.75122 -48.08983 21672 ft 477 kts 358°
2026-05-06 00:14 -16.71809 -48.09035 21309 ft 475 kts 359°
2026-05-06 00:14 -16.68515 -48.09075 20949 ft 474 kts 359°
2026-05-06 00:14 -16.65213 -48.09126 20592 ft 472 kts 359°
2026-05-06 00:14 -16.61946 -48.09192 20237 ft 470 kts 359°
2026-05-06 00:15 -16.58683 -48.09272 19896 ft 467 kts 358°
2026-05-06 00:15 -16.55434 -48.09361 19550 ft 465 kts 358°
2026-05-06 00:15 -16.52215 -48.09454 19211 ft 462 kts 358°
2026-05-06 00:15 -16.49012 -48.09547 18874 ft 459 kts 358°
2026-05-06 00:16 -16.45818 -48.09640 18542 ft 456 kts 358°
2026-05-06 00:16 -16.42661 -48.09731 18170 ft 454 kts 358°
2026-05-06 00:16 -16.39511 -48.09822 17787 ft 451 kts 358°
2026-05-06 00:16 -16.36384 -48.09912 17414 ft 448 kts 358°
2026-05-06 00:17 -16.33280 -48.10000 17040 ft 444 kts 359°
2026-05-06 00:17 -16.30198 -48.10088 16670 ft 441 kts 359°
2026-05-06 00:17 -16.27141 -48.10175 16306 ft 438 kts 359°
2026-05-06 00:17 -16.24146 -48.10260 15954 ft 434 kts 359°
2026-05-06 00:18 -16.21139 -48.10346 15601 ft 431 kts 359°
2026-05-06 00:18 -16.18104 -48.10432 15244 ft 428 kts 359°
2026-05-06 00:18 -16.15177 -48.10515 14916 ft 423 kts 359°
2026-05-06 00:18 -16.12273 -48.10598 14573 ft 410 kts 359°
2026-05-06 00:19 -16.09462 -48.10678 14239 ft 399 kts 359°
2026-05-06 00:19 -16.06731 -48.10756 13894 ft 388 kts 359°
2026-05-06 00:19 -16.04072 -48.10832 13491 ft 371 kts 359°
2026-05-06 00:19 -16.01532 -48.10904 12869 ft 360 kts 360°
2026-05-06 00:20 -15.99058 -48.10974 11986 ft 355 kts
2026-05-06 00:20 -15.96526 -48.11044 10527 ft 370 kts
2026-05-06 00:20 -15.93972 -48.11116 9083 ft 370 kts
2026-05-06 00:20 -15.91422 -48.11135 7605 ft 351 kts
2026-05-06 00:21 -15.89311 -48.10289 6983 ft 312 kts 39°
2026-05-06 00:21 -15.88001 -48.08675 6376 ft 281 kts 69°
2026-05-06 00:21 -15.87771 -48.06784 5924 ft 255 kts 102°
2026-05-06 00:21 -15.88288 -48.05111 5629 ft 233 kts 108°
2026-05-06 00:22 -15.88583 -48.03547 5356 ft 211 kts 93°
2026-05-06 00:22 -15.88583 -48.02087 5104 ft 192 kts 89°
2026-05-06 00:22 -15.88503 -48.00759 4880 ft 177 kts 88°
2026-05-06 00:22 -15.88421 -47.99526 4682 ft 163 kts 88°
2026-05-06 00:23 -15.88341 -47.98409 4489 ft 152 kts 87°
2026-05-06 00:23 -15.88267 -47.97318 4208 ft 148 kts 87°
2026-05-06 00:23 -15.88195 -47.96269 4013 ft 144 kts 87°
2026-05-06 00:23 -15.88136 -47.95231 3813 ft 145 kts 87°
2026-05-06 00:24 -15.88078 -47.94188 3618 ft 142 kts 87°
2026-05-06 00:24 -15.88013 -47.93210 3494 ft 131 kts 88°
2026-05-06 00:24 -15.87964 -47.92356 3463 ft 83 kts 86°
2026-05-06 00:24 -15.87952 -47.92168 3458 ft 17 kts 86°
2026-05-06 00:25 -15.87944 -47.92038 3454 ft 19 kts 86°
2026-05-06 00:25 -15.87928 -47.91904 3451 ft 19 kts 69°
2026-05-06 00:25 -15.87875 -47.91869 3449 ft 18 kts 11°